FW0743 Weather Reports


time (UTC)temp
C
wind
direction
speed
KPH
gust
KPH
rain 1hr
cm
rain 24hr
cm
rain mn
cm
humidity
%
barometer
mb
20260507113008 2 292 1.6 8.0 0.00 0.33 0.00 78 1012.8
20260507111504 2 339 4.8 14.5 0.00 0.38 0.00 76 1012.8
20260507110012 1 298 4.8 11.3 0.00 0.46 0.00 81 1012.7
20260507104508 0 306 1.6 6.4 0.00 0.48 0.00 86 1012.6
20260507103010 0 273 0.0 4.8 0.00 0.53 0.00 90 1012.6
20260507101510 0 309 0.0 4.8 0.00 0.56 0.00 90 1012.3
20260507100010 0 269 0.0 1.6 0.00 0.58 0.00 89 1012.6
20260507094508 0 269 0.0 4.8 0.00 0.58 0.00 88 1012.4
20260507093008 0 249 1.6 4.8 0.00 0.61 0.00 88 1012.5
20260507091532 0 252 0.0 4.8 0.00 0.66 0.00 86 1012.5
20260507090011 0 314 0.0 3.2 0.00 0.69 0.00 86 1012.5
20260507084504 0 246 0.0 3.2 0.00 0.71 0.00 86 1012.6
20260507083016 0 313 0.0 4.8 0.00 0.74 0.00 85 1012.5
20260507081513 0 284 0.0 3.2 0.00 0.76 0.00 84 1012.6
20260507080013 1 284 0.0 4.8 0.00 0.79 0.00 82 1012.7
20260507074513 1 284 0.0 6.4 0.00 0.81 0.00 81 1012.4
20260507073007 2 308 0.0 6.4 0.00 0.84 0.00 80 1012.3
20260507071512 2 306 1.6 4.8 0.00 0.91 0.00 78 1012.2
20260507070016 2 287 1.6 14.5 0.00 0.94 0.00 75 1012.0
20260507064515 2 315 4.8 12.9 0.00 0.94 0.00 74 1012.0
20260507063006 2 308 4.8 14.5 0.00 0.97 0.00 74 1012.2
20260507061525 2 333 4.8 14.5 0.00 0.99 0.00 74 1012.2
20260507060026 3 323 4.8 17.7 0.00 1.02 0.00 72 1012.4
20260507054515 3 323 11.3 19.3 0.00 1.04 0.00 75 1012.3
20260507053004 3 305 11.3 19.3 0.00 1.04 0.00 82 1012.4
20260507051507 3 331 3.2 14.5 0.00 1.04 0.00 88 1012.3
20260507050027 3 300 6.4 16.1 0.00 1.04 0.00 90 1012.2
20260507044531 3 317 6.4 12.9 0.00 1.07 0.00 92 1012.3
20260507043016 3 264 8.0 16.1 0.00 1.12 0.00 93 1012.3
20260507041503 4 310 4.8 16.1 0.00 1.14 0.00 93 1012.1
20260507040010 4 338 3.2 6.4 0.00 1.19 0.00 93 1012.0
20260507034512 4 321 3.2 8.0 0.00 1.22 1.19 92 1012.0
20260507033019 4 293 1.6 4.8 0.00 1.27 1.19 93 1011.9
20260507031517 4 335 1.6 4.8 0.00 1.30 1.19 92 1012.1
20260507030008 4 336 1.6 6.4 0.00 1.32 1.19 91 1011.8
20260507024511 5 341 3.2 12.9 0.00 1.40 1.19 91 1012.1
20260507023017 5 343 1.6 4.8 0.00 1.45 1.19 93 1012.1
20260507021520 5 281 0.0 4.8 0.00 1.47 1.19 94 1012.2
20260507020022 5 281 0.0 3.2 0.00 1.55 1.19 94 1012.2
20260507014510 5 281 0.0 4.8 0.00 1.60 1.19 93 1012.2
20260507013011 5 281 0.0 1.6 0.00 1.65 1.19 93 1012.0
20260507011528 5 281 0.0 3.2 0.00 1.73 1.19 93 1011.8
20260507010022 5 281 0.0 3.2 0.00 1.75 1.19 92 1011.7
20260507004524 5 281 0.0 3.2 0.00 1.78 1.19 92 1011.7
20260507003010 5 281 1.6 4.8 0.00 1.80 1.19 92 1011.7
20260507001518 5 281 1.6 6.4 0.00 1.93 1.19 92 1011.6
20260507000026 5 287 1.6 4.8 0.00 2.06 1.19 91 1011.4
20260506234522 5 244 0.0 4.8 0.00 2.06 1.19 91 1011.0
20260506233023 5 305 1.6 6.4 0.00 2.06 1.19 91 1010.8
20260506231513 5 346 3.2 6.4 0.00 2.06 1.19 90 1010.5
20260506230017 5 11 0.0 4.8 0.00 2.06 1.19 90 1010.2
20260506224523 5 19 0.0 4.8 0.00 2.06 1.19 90 1010.7
20260506223024 5 348 0.0 4.8 0.00 2.06 1.19 90 1010.7
20260506221526 5 351 3.2 8.0 0.00 2.06 1.19 89 1010.7
20260506220019 6 329 3.2 12.9 0.00 2.06 1.19 90 1010.8
20260506214522 6 298 8.0 14.5 0.00 2.06 1.19 90 1010.6
20260506213011 6 342 6.4 12.9 0.00 2.06 1.19 91 1010.4
20260506211512 5 343 4.8 17.7 0.00 2.06 1.19 91 1010.6
20260506210013 6 5 6.4 14.5 0.00 2.06 1.19 92 1010.4
20260506204523 5 345 4.8 16.1 0.00 2.06 1.19 93 1010.0
20260506203003 5 348 9.7 16.1 0.00 2.06 1.19 94 1009.7
20260506201508 5 25 4.8 20.9 0.00 2.06 1.19 95 1009.7
20260506200019 5 313 4.8 20.9 0.00 2.06 1.19 95 1009.9
20260506194516 5 347 4.8 19.3 0.00 2.06 1.19 95 1010.0
20260506193020 5 347 9.7 22.5 0.00 2.06 1.19 95 1009.8
20260506191509 5 339 9.7 22.5 0.00 2.06 1.19 94 1009.8
20260506190009 6 351 4.8 17.7 0.00 2.08 1.19 94 1009.5
20260506184516 6 335 6.4 16.1 0.00 2.08 1.19 94 1009.5
20260506183018 6 360 9.7 14.5 0.00 2.08 1.19 94 1009.2
20260506181522 6 344 8.0 19.3 0.00 2.08 1.19 94 1009.0
20260506180006 6 355 6.4 14.5 0.00 2.08 1.19 94 1008.8
20260506174509 6 11 3.2 17.7 0.00 2.08 1.19 95 1008.8
20260506173017 6 346 4.8 16.1 0.00 2.67 1.19 95 1008.9
20260506171520 6 5 4.8 9.7 0.00 2.77 1.19 95 1008.5
20260506170021 6 5 4.8 9.7 0.00 2.77 1.19 95 1008.5
20260506164508 6 19 3.2 12.9 0.00 2.77 1.19 96 1008.5
20260506163019 5 348 4.8 12.9 0.00 2.77 1.19 96 1008.7
20260506161518 5 9 4.8 9.7 0.00 2.77 1.19 96 1008.7
20260506160023 6 348 1.6 8.0 0.00 2.77 1.19 97 1008.9
20260506154536 5 355 4.8 11.3 0.00 2.77 1.19 97 1009.0
20260506153009 5 331 3.2 11.3 0.00 2.77 1.19 97 1009.1
20260506151514 5 322 4.8 8.0 0.00 2.77 1.19 97 1008.9
20260506150020 5 55 1.6 9.7 0.03 2.77 1.19 97 1008.5
20260506144522 5 28 1.6 11.3 0.05 2.77 1.19 97 1008.4
20260506143026 5 5 3.2 6.4 0.08 2.77 1.19 97 1008.6
20260506141508 5 355 1.6 6.4 0.10 2.77 1.19 97 1008.7
20260506140016 5 360 1.6 4.8 0.08 2.74 1.17 97 1008.7
20260506134520 4 38 1.6 6.4 0.10 2.72 1.14 97 1008.7
20260506133026 5 5 0.0 6.4 0.13 2.67 1.12 97 1008.9
20260506131529 4 330 3.2 8.0 0.13 2.64 1.09 97 1009.0
20260506130012 4 11 3.2 8.0 0.15 2.64 1.09 97 1009.0
20260506124519 4 5 1.6 6.4 0.13 2.62 1.04 97 1009.0
20260506123024 4 5 3.2 6.4 0.13 2.57 0.99 97 1008.8
20260506121503 4 65 0.0 6.4 0.15 2.54 0.97 97 1008.6
20260506120010 4 26 1.6 8.0 0.20 2.51 0.94 97 1008.8
20260506114514 4 18 3.2 14.5 0.20 2.49 0.91 97 1008.8